This demonstration page uses our WeatherBlox Daily Observations layout. Learn more.

Left ArrowRight Arrow

Hourly Observations for January 29, 2022

Temp ( °F °C ) Dew Point ( °F °C ) Humidity (%) Winds ( mph kmh ) Pressure ( in mb ) Visibility ( mi km ) Precip ( " mm )
12:22 am 00:22 Mostly Cloudy 4 -15.6 0 -17.8 83 83 WNW 6 9 30.37 1028 10 16 0.00 0.00
12:45 am 00:45 Cloudy 7 -13.9 3 -16.1 84 84 NW 3 6 30.35 1028 10 16 0.00 0.00
12:53 am 00:53 Cloudy 8 -13.3 4 -15.6 83 83 Calm 30.31 1027 10 16 0.00 0.00
1:10 am 01:10 Cloudy 9 -12.8 5 -15 84 84 Calm 30.35 1028 10 16 0.00 0.00
1:53 am 01:53 Cloudy 6 -14.4 3 -16.1 87 87 N 3 6 30.30 1026 9 14 0.00 0.00
2:48 am 02:48 Partly Cloudy 10 -12 5 -15 79 79 N 5 7 30.34 1027 10 16 0.00 0.00
2:53 am 02:53 Mostly Clear 9 -12.8 4 -15.6 80 80 NNW 5 7 30.30 1026 10 16 0.00 0.00
3:53 am 03:53 Clear 1 -17.2 -3 -19.4 83 83 Calm 30.31 1026 10 16 0.00 0.00
4:53 am 04:53 Clear -4 -20 -8 -22.2 83 83 W 3 6 30.32 1027 10 16 0.00 0.00
5:53 am 05:53 Clear -7 -21.7 -12 -24.4 79 79 Calm 30.33 1027 10 16 0.00 0.00
6:53 am 06:53 Clear with Mist and Fog -7 -21.7 -11 -23.9 82 82 Calm 30.35 1028 5 8 0.00 0.00
7:53 am 07:53 Sunny -7 -21.7 -11 -23.9 82 82 Calm 30.35 1028 10 16 0.00 0.00
8:28 am 08:28 Sunny with Mist and Fog -5 -20.6 -8 -22.2 87 87 Calm 30.40 1030 1 1 0.00 0.00
8:39 am 08:39 Sunny with Mist and Fog -3 -19.4 -7 -21.7 82 82 Calm 30.41 1030 3 4 0.00 0.00
8:46 am 08:46 Sunny -2 -18.9 -5 -20.6 87 87 Calm 30.41 1030 10 16 0.00 0.00
8:53 am 08:53 Sunny -1 -18.3 -5 -20.6 82 82 Calm 30.36 1028 9 14 0.00 0.00
9:53 am 09:53 Mostly Sunny 9 -12.8 5 -15 84 84 VRB 3 6 30.36 1028 10 16 0.00 0.00
10:53 am 10:53 Sunny 13 -10.6 4 -15.6 67 67 Calm 30.34 1028 10 16 0.00 0.00
11:53 am 11:53 Sunny 18 -7.8 5 -15 57 57 VRB 6 9 30.33 1027 10 16 0.00 0.00
12:53 pm 12:53 Sunny 19 -7.2 6 -14.4 57 57 W 3 6 30.29 1026 10 16 0.00 0.00
1:53 pm 13:53 Cloudy 21 -6.1 7 -13.9 54 54 VRB 3 6 30.25 1024 10 16 0.00 0.00
2:53 pm 14:53 Mostly Cloudy 22 -5.6 8 -13.3 55 55 VRB 5 7 30.22 1023 10 16 0.00 0.00
3:53 pm 15:53 Cloudy 24 -4.4 9 -12.8 52 52 VRB 6 9 30.19 1022 10 16 0.00 0.00
4:53 pm 16:53 Mostly Cloudy 24 -4.4 9 -12.8 52 52 SSW 5 7 30.17 1022 10 16 0.00 0.00
5:53 pm 17:53 Cloudy 23 -5 8 -13.3 53 53 VRB 3 6 30.17 1022 10 16 0.00 0.00
6:53 pm 18:53 Cloudy 23 -5 9 -12.8 55 55 Calm 30.15 1021 10 16 0.00 0.00
7:53 pm 19:53 Mostly Cloudy 22 -5.6 9 -12.8 57 57 S 3 6 30.14 1021 10 16 0.00 0.00
8:53 pm 20:53 Clear 19 -7.2 9 -12.8 65 65 Calm 30.13 1020 10 16 0.00 0.00
9:53 pm 21:53 Clear 19 -7.2 9 -12.8 65 65 Calm 30.10 1019 10 16 0.00 0.00
10:53 pm 22:53 Clear 19 -7.2 9 -12.8 65 65 VRB 3 6 30.10 1019 10 16 0.00 0.00
11:53 pm 23:53 Cloudy 20 -6.7 11 -11.7 68 68 Calm 30.07 1018 10 16 0.00 0.00

Powered by AerisWeather